When you browse on this site, cookies collect data to enhance your experience and personalize the content and advertising you see.
Visit our Privacy Policy to learn more. By continuing to use the site, you agree to this use of cookies and data.
  • In Hungary
  • List of Countries
  • For 7 days
  • Water Temperature
  • Satellite Maps
  • Weather Map
  • News
  • Weather Widgets
  • user-avatar
    Login

    Hourly Weather Catarroja

    Today, 18 December, Tuesday

    Time Temperature Precipitation Wind Pressure Humidity
    00:00 +9°C° 0 mm 3 mps 771 mmHg 53%
    01:00 +9°C° 0 mm 2 mps 770 mmHg 55%
    02:00 +9°C° 0 mm 2 mps 770 mmHg 56%
    03:00 +9°C° 0 mm 2 mps 770 mmHg 58%
    04:00 +9°C° 0 mm 2 mps 770 mmHg 59%
    05:00 +9°C° 0 mm 2 mps 769 mmHg 59%
    06:00 +8°C° 0 mm 2 mps 769 mmHg 64%
    07:00 +9°C° 0 mm 2 mps 769 mmHg 61%
    08:00 +10°C° 0 mm 2 mps 769 mmHg 58%
    09:00 +12°C° 0 mm 2 mps 769 mmHg 56%
    10:00 +13°C° 0 mm 3 mps 768 mmHg 52%
    11:00 +14°C° 0 mm 3 mps 768 mmHg 48%
    12:00 +17°C° 0 mm 3 mps 767 mmHg 44%
    13:00 +17°C° 0 mm 3 mps 766 mmHg 44%
    14:00 +18°C° 0 mm 3 mps 766 mmHg 43%
    15:00 +18°C° 0 mm 4 mps 765 mmHg 42%
    16:00 +15°C° 0 mm 4 mps 766 mmHg 47%
    17:00 +14°C° 0 mm 4 mps 766 mmHg 52%
    18:00 +13°C° 0 mm 4 mps 766 mmHg 57%
    19:00 +13°C° 0 mm 4 mps 766 mmHg 57%
    20:00 +13°C° 0 mm 4 mps 766 mmHg 57%
    21:00 +12°C° 0 mm 4 mps 766 mmHg 56%
    22:00 +13°C° 0 mm 4 mps 766 mmHg 57%
    23:00 +13°C° 0 mm 4 mps 766 mmHg 57%

    Tomorrow, 19 December, Wednesday

    Time Temperature Precipitation Wind Pressure Humidity
    00:00 +13°C° 0 mm 4 mps 765 mmHg 58%
    01:00 +13°C° 0 mm 4 mps 765 mmHg 62%
    02:00 +13°C° 0 mm 5 mps 765 mmHg 66%
    03:00 +13°C° 0 mm 5 mps 765 mmHg 69%
    04:00 +13°C° 0.1 mm 5 mps 765 mmHg 73%
    05:00 +13°C° 0.1 mm 6 mps 765 mmHg 76%
    06:00 +13°C° 0.1 mm 6 mps 765 mmHg 79%
    07:00 +14°C° 0 mm 6 mps 765 mmHg 78%
    08:00 +14°C° 0 mm 6 mps 765 mmHg 76%
    09:00 +15°C° 0 mm 6 mps 765 mmHg 75%
    10:00 +16°C° 0 mm 6 mps 765 mmHg 66%
    11:00 +17°C° 0 mm 7 mps 765 mmHg 58%
    12:00 +18°C° 0 mm 7 mps 765 mmHg 49%
    13:00 +18°C° 0 mm 7 mps 765 mmHg 45%
    14:00 +18°C° 0 mm 7 mps 765 mmHg 42%
    15:00 +18°C° 0 mm 7 mps 765 mmHg 38%
    16:00 +16°C° 0 mm 6 mps 765 mmHg 44%
    17:00 +15°C° 0 mm 6 mps 766 mmHg 50%
    18:00 +13°C° 0 mm 6 mps 766 mmHg 56%
    19:00 +13°C° 0 mm 6 mps 767 mmHg 59%
    20:00 +12°C° 0 mm 5 mps 767 mmHg 63%
    21:00 +12°C° 0 mm 5 mps 768 mmHg 66%
    22:00 +10°C° 0 mm 5 mps 768 mmHg 68%
    23:00 +11°C° 0 mm 4 mps 768 mmHg 70%

    Day after tomorrow, 20 December, Thursday

    Time Temperature Precipitation Wind Pressure Humidity
    00:00 +11°C° 0 mm 4 mps 768 mmHg 72%
    01:00 +11°C° 0 mm 4 mps 768 mmHg 71%
    02:00 +11°C° 0 mm 4 mps 768 mmHg 71%
    03:00 +12°C° 0 mm 4 mps 768 mmHg 70%
    04:00 +11°C° 0 mm 4 mps 769 mmHg 71%
    05:00 +11°C° 0 mm 4 mps 769 mmHg 72%
    06:00 +11°C° 0 mm 4 mps 769 mmHg 73%
    07:00 +12°C° 0 mm 4 mps 769 mmHg 71%
    08:00 +12°C° 0 mm 4 mps 770 mmHg 69%
    09:00 +12°C° 0 mm 3 mps 770 mmHg 68%
    10:00 +14°C° 0 mm 3 mps 770 mmHg 60%
    11:00 +16°C° 0 mm 3 mps 770 mmHg 53%
    12:00 +17°C° 0 mm 3 mps 769 mmHg 46%
    13:00 +18°C° 0 mm 2 mps 769 mmHg 45%
    14:00 +18°C° 0 mm 2 mps 769 mmHg 44%
    15:00 +18°C° 0 mm 2 mps 769 mmHg 43%
    16:00 +16°C° 0 mm 2 mps 770 mmHg 50%
    17:00 +15°C° 0 mm 2 mps 770 mmHg 57%
    18:00 +14°C° 0 mm 2 mps 771 mmHg 64%
    19:00 +13°C° 0 mm 2 mps 771 mmHg 67%
    20:00 +13°C° 0 mm 2 mps 772 mmHg 69%
    21:00 +12°C° 0 mm 2 mps 772 mmHg 72%
    22:00 +12°C° 0 mm 2 mps 772 mmHg 72%
    23:00 +12°C° 0 mm 2 mps 773 mmHg 73%

    21 December, Friday

    Time Temperature Precipitation Wind Pressure Humidity
    00:00 +10°C° 0 mm 2 mps 773 mmHg 74%
    01:00 +10°C° 0 mm 2 mps 773 mmHg 74%
    02:00 +10°C° 0 mm 2 mps 773 mmHg 74%
    03:00 +10°C° 0 mm 2 mps 773 mmHg 74%
    04:00 +10°C° 0 mm 2 mps 773 mmHg 74%
    05:00 +10°C° 0 mm 2 mps 773 mmHg 74%
    06:00 +9°C° 0 mm 2 mps 773 mmHg 74%
    07:00 +10°C° 0 mm 2 mps 773 mmHg 70%
    08:00 +11°C° 0 mm 3 mps 773 mmHg 66%
    09:00 +12°C° 0 mm 3 mps 774 mmHg 62%
    10:00 +14°C° 0 mm 3 mps 773 mmHg 57%
    11:00 +17°C° 0 mm 3 mps 773 mmHg 51%
    12:00 +18°C° 0 mm 3 mps 773 mmHg 46%
    13:00 +19°C° 0 mm 4 mps 772 mmHg 46%
    14:00 +19°C° 0 mm 4 mps 772 mmHg 46%
    15:00 +19°C° 0 mm 4 mps 771 mmHg 46%
    16:00 +18°C° 0 mm 4 mps 771 mmHg 52%
    17:00 +15°C° 0 mm 4 mps 772 mmHg 58%
    18:00 +14°C° 0 mm 4 mps 772 mmHg 64%
    19:00 +13°C° 0 mm 4 mps 772 mmHg 65%
    20:00 +13°C° 0 mm 4 mps 772 mmHg 66%
    21:00 +13°C° 0 mm 3 mps 773 mmHg 66%
    22:00 +13°C° 0 mm 3 mps 772 mmHg 66%
    23:00 +12°C° 0 mm 3 mps 772 mmHg 66%

    22 December, Saturday

    Time Temperature Precipitation Wind Pressure Humidity
    00:00 +12°C° 0 mm 3 mps 772 mmHg 66%
    01:00 +12°C° 0 mm 3 mps 772 mmHg 66%
    02:00 +12°C° 0 mm 3 mps 771 mmHg 66%
    03:00 +12°C° 0 mm 3 mps 771 mmHg 66%
    04:00 +12°C° 0 mm 3 mps 771 mmHg 66%
    05:00 +13°C° 0 mm 2 mps 771 mmHg 67%
    06:00 +12°C° 0 mm 2 mps 771 mmHg 67%
    07:00 +13°C° 0 mm 2 mps 771 mmHg 64%
    08:00 +14°C° 0 mm 2 mps 772 mmHg 61%
    09:00 +15°C° 0 mm 2 mps 772 mmHg 57%
    10:00 +17°C° 0 mm 2 mps 771 mmHg 52%
    11:00 +19°C° 0 mm 2 mps 771 mmHg 47%
    12:00 +22°C° 0 mm 1 mps 771 mmHg 42%
    13:00 +21°C° 0 mm 2 mps 770 mmHg 41%
    14:00 +21°C° 0 mm 2 mps 770 mmHg 41%
    15:00 +23°C° 0 mm 2 mps 769 mmHg 40%
    16:00 +19°C° 0 mm 2 mps 770 mmHg 48%
    17:00 +17°C° 0 mm 2 mps 770 mmHg 55%
    18:00 +15°C° 0 mm 1 mps 770 mmHg 62%
    19:00 +15°C° 0 mm 1 mps 770 mmHg 64%
    20:00 +15°C° 0 mm 1 mps 770 mmHg 65%
    21:00 +14°C° 0 mm 1 mps 771 mmHg 67%
    22:00 +14°C° 0 mm 1 mps 771 mmHg 66%
    23:00 +14°C° 0 mm 1 mps 770 mmHg 66%

    23 December, Sunday

    Time Temperature Precipitation Wind Pressure Humidity
    00:00 +13°C° 0 mm 1 mps 770 mmHg 66%
    01:00 +13°C° 0 mm 1 mps 770 mmHg 66%
    02:00 +13°C° 0 mm 1 mps 770 mmHg 65%
    03:00 +13°C° 0 mm 1 mps 770 mmHg 65%
    04:00 +13°C° 0 mm 1 mps 770 mmHg 65%
    05:00 +13°C° 0 mm 1 mps 770 mmHg 65%
    06:00 +13°C° 0 mm 1 mps 770 mmHg 64%
    07:00 +14°C° 0 mm 1 mps 770 mmHg 60%
    08:00 +15°C° 0 mm 1 mps 770 mmHg 56%
    09:00 +18°C° 0 mm 1 mps 771 mmHg 52%
    10:00 +19°C° 0 mm 1 mps 770 mmHg 46%
    11:00 +21°C° 0 mm 1 mps 770 mmHg 40%
    12:00 +22°C° 0 mm 1 mps 770 mmHg 34%
    13:00 +22°C° 0 mm 1 mps 769 mmHg 34%
    14:00 +23°C° 0 mm 2 mps 769 mmHg 33%
    15:00 +23°C° 0 mm 2 mps 768 mmHg 33%
    16:00 +19°C° 0 mm 2 mps 769 mmHg 39%
    17:00 +17°C° 0 mm 2 mps 769 mmHg 44%
    18:00 +15°C° 0 mm 2 mps 769 mmHg 50%
    19:00 +15°C° 0 mm 2 mps 769 mmHg 49%
    20:00 +15°C° 0 mm 2 mps 769 mmHg 48%
    21:00 +14°C° 0 mm 1 mps 769 mmHg 47%
    22:00 +14°C° 0 mm 1 mps 769 mmHg 47%
    23:00 +14°C° 0 mm 1 mps 769 mmHg 47%
    Show more